Regional Weather Roundup
Issued by NWS

Home | Current Version | Previous Version | Text Only | Print | Product List | Glossary On
Versions: 1 2 3 4 5 6 7 8 9 10 11 12 13 14 15 16 17 18 19 20 21 22 23 24 25 26 27 28 29 30 31 32 33 34 35 36 37 38 39 40 41 42 43 44 45 46 47 48 49 50
000
ASUS43 KOAX 171910
RWRNE

WEATHER ROUNDUP FOR NEBRASKA
NATIONAL WEATHER SERVICE OMAHA NE
200 PM CDT THU AUG 17 2017

NOTES: SATELLITE DATA IS BEING USED TO AUGMENT CLOUD COVER ABOVE
       12000 FEET.
       "FAIR" INDICATES FEW OR NO CLOUDS BELOW 12,000 FEET WITH NO
       SIGNIFICANT WEATHER AND/OR OBSTRUCTIONS TO VISIBILITY.


NEZ001>004-019>022-054>056-172000-
NEBRASKA PANHANDLE

CITY           SKY/WX    TMP DP  RH WIND       PRES   REMARKS
SCOTTSBLUFF    SUNNY     84  50  30 NW6       30.01F
ALLIANCE       SUNNY     83  52  34 S14       30.01F
CHADRON        SUNNY     87  45  23 MISG      29.94F
GORDON         FAIR      85  52  31 SW13G21   29.97F
KIMBALL        CLOUDY    81  44  27 W7        30.10S
SIDNEY         SUNNY     86  47  25 SW9       30.06F
$$

NEZ057>060-069>072-079>082-172000-
SOUTHWEST NEBRASKA

CITY           SKY/WX    TMP DP  RH WIND       PRES   REMARKS
NORTH PLATTE   SUNNY     84  58  40 SW10      30.01F
IMPERIAL       SUNNY     86  54  33 SW16G22   30.04F
LEXINGTON      SUNNY     82  57  42 SW9       30.02F
MCCOOK         MOSUNNY   84  56  38 SW7       30.03F
OGALLALA       SUNNY     84  56  37 S14       30.02F
$$

NEZ005>010-023>029-035>040-094-172000-
NORTH CENTRAL NEBRASKA

CITY           SKY/WX    TMP DP  RH WIND       PRES   REMARKS
VALENTINE      SUNNY     89  50  26 S13       29.94F
AINSWORTH      SUNNY     83  56  39 S8        29.97F
BROKEN BOW     SUNNY     84  55  36 SW9       30.00F
O`NEILL        SUNNY     78  60  53 CALM      29.97F
ORD            SUNNY     83  51  33 W8        29.97F
THEDFORD       SUNNY     85  53  32 SW14      29.99F
$$

NEZ041-046>049-061>064-073>077-083>087-172000-
SOUTH CENTRAL NEBRASKA

CITY           SKY/WX    TMP DP  RH WIND       PRES   REMARKS
GRAND ISLAND   SUNNY     82  61  48 W12       30.00F
AURORA         SUNNY     80  61  52 W9        30.00F
HASTINGS       SUNNY     80  60  50 W9        30.02F
HEBRON         SUNNY     83  58  43 NW6       30.00S
HOLDREGE       SUNNY     79  56  45 W6        30.03F
KEARNEY        SUNNY     81  60  48 SW12G20   30.02F
YORK           SUNNY     77  64  65 W12       29.99F
$$

NEZ011>018-030>034-042>045-172000-
NORTHEAST NEBRASKA

CITY           SKY/WX    TMP DP  RH WIND       PRES   REMARKS
NORFOLK        SUNNY     79  57  46 W10       29.94F
ALBION         SUNNY     81  60  48 W8        29.98F
BLAIR          RAIN      77  60  55 W10G20    29.94S
COLUMBUS       SUNNY     78  60  53 W12       29.97F
FREMONT        SUNNY     79  59  50 W15       29.95F
TEKAMAH        SUNNY     79  60  52 NW12      29.91F
WAYNE          SUNNY     77  59  53 NW8       29.93F
$$

NEZ050>053-065>068-078-088>093-172000-
SOUTHEAST NEBRASKA

CITY           SKY/WX    TMP DP  RH WIND       PRES   REMARKS
LINCOLN        SUNNY     82  55  39 NW16      29.97F
OMAHA EPPLEY   MOSUNNY   81  58  45 W16       29.92F
BEATRICE       SUNNY     83  55  37 W13G21    29.98F
FALLS CITY     SUNNY     81  59  47 W16       29.95F
NEBRASKA CITY  SUNNY     81  58  46 NW14G22   29.96S
PLATTSMOUTH    SUNNY     79  57  48 W12G17    29.94S
$$

NEZ044-045-051>053-067-172000-
OMAHA AREA

CITY           SKY/WX    TMP DP  RH WIND       PRES   REMARKS
OMAHA EPPLEY   MOSUNNY   81  58  45 W16       29.92F
BLAIR          RAIN      77  60  55 W10G20    29.94S
FREMONT        SUNNY     79  59  50 W15       29.95F
MILLARD        SUNNY     81  60  48 NW12G17   29.94S
OFFUTT AFB     SUNNY     82  56  40 NW15G22   29.92F
PLATTSMOUTH    SUNNY     79  57  48 W12G17    29.94S
WAHOO          FAIR      78  60  54 NW13      29.95F
$$




USA.gov is the U.S. government's official web portal to all federal, state and local government web resources and services.